www.pogodaiklimat.ru

Погода и климат >> Архив погоды >> Аргентина >> Вилла Долорес


ПОГОДА в Вилла Долорес

  • Прогноз погоды в Вилла Долорес
  • Монитор погоды в Вилла Долорес

АРХИВ ПОГОДЫ в Вилла Долорес

Время (UTC), дата Ветер
(напр.,м/с)
 
Видим.   Явления Облачность Т
(С)
Тd
(С)
f
(%)
Тe
(С)
Тes
(С)
Комфортность P
(гПа)
Po
(гПа)
Тmin
(С)
Tmax
(С)
R
(мм)
R24
(мм)
S
(см)
03 12.03 С 2 30 км 8/8 600 м
[Sc]
+17.2 +15.7 91 +17 +17 1015.6 950.5
06 12.03 СВ 2 30 км 8/8 600 м
[Sc]
+16.5 +15.0 91 +17 +17 1015.2 950.1
09 12.03 В 1 30 км 6/6 900 м
[St]
+15.6 +14.8 95 +16 +16 1014.8 949.7
12 12.03 В 1 30 км 3/3 900 м
[Cu hum]
+18.2 +14.9 81 +20 +22 1015.3 950.4 +15.2 +18.7 0.6
15 12.03 З 1 30 км 5/5 900 м
[Cu hum]
+22.4 +13.7 58 +26 +34 жарко 1015.4 950.8
18 12.03 С 3 30 км 4/4 900 м
[Cu hum]
+25.4 +12.3 44 +27 +34 жарко 1013.1 948.8
21 12.03 штиль 0 30 км 4/4 1200 м
[Cu hum]
+26.4 +11.4 39 +28 +29 жарко 1011.2 947.0
00 13.03 ЮВ 3 20 км в посл. час дождь туман 6/6 900 м
[Cu med, cong Ac As]
+18.1 +16.1 88 +18 +18 1014.0 949.0 +17.9 +27.0 3
03 13.03 В 2 30 км 3/3 1200 м
[Sc]
+17.3 +16.2 93 +18 +18 1014.8 950.2
06 13.03 штиль 0 30 км 8/8 900 м
[Sc]
+16.7 +15.2 91 +17 +17 1014.5 950.2
09 13.03 ЮВ 2 30 км 1/1 900 м
[Sc]
+14.8 +13.8 94 +15 +15 1014.3 949.8
12 13.03 В 1 30 км 4/4 1200 м
[Sc]
+16.6 +14.2 86 +17 +20 1015.2 950.0 +13.8 +18.1 3
15 13.03 З 1 30 км 4/4 <50 м
[Cu med, cong]
+24.4 +15.6 58 +27 +38 жарко 1013.6 949.4
18 13.03 З 3 30 км 4/4 1200 м
[Cu hum]
+27.8 +14.6 44 +30 +38 жарко 1011.1 947.3
21 13.03 СВ 2 30 км 3/3 1200 м
[Cu hum]
+28.5 +16.5 48 +32 +34 душно 1009.3 945.4
00 14.03 В 3 30 км ясно +20.8 +16.0 74 +25 +25 комфорт 1009.8 945.3 +16.6 +29.1
03 14.03 В 4 30 км ясно +20.2 +15.3 73 +23 +23 комфорт 1010.5 946.6
06 14.03 СВ 6 30 км 4/4 1200 м
[Sc]
+20.6 +17.1 80 +24 +24 комфорт 1010.2 946.8
09 14.03 ЮВ 2 30 км 1/1 1200 м
[Sc]
+17.4 +14.7 84 +18 +18 1010.7 947.0
12 14.03 ЮВ 1 30 км 1/1 1200 м
[Sc]
+20.0 +17.0 83 +24 +27 комфорт 1012.5 948.1 +15.9 +20.8
15 14.03 СЗ 5 30 км 4/4 1050 м
[Cu hum]
+26.1 +16.2 54 +29 +34 жарко 1012.5 948.6
18 14.03 СЗ 4 30 км 6/6 1200 м
[Cu Sc]
+28.7 +14.2 41 +31 +34 жарко 1010.9 947.4
21 14.03 С 3 30 км 4/4 1200 м
[Cu hum]
+28.9 +14.3 41 +31 +32 жарко 1009.1 945.6
00 15.03 С 2 30 км 6/6 1200 м
[Sc]
+24.0 +16.8 64 +28 +28 душно 1010.4 946.5 +20.0 +29.5
03 15.03 С 1 30 км зарница 8/8 1200 м
[Cb cap]
+22.4 +16.7 70 +27 +27 душно 1011.5 948.0
06 15.03 СВ 3 30 км 3/3 1200 м
[Sc]
+21.6 +18.8 84 +26 +26 душно 1010.6 947.3
09 15.03 В 1 30 км зарница 6/6 1200 м
[Cb cap]
+20.2 +18.0 87 +25 +25 комфорт 1011.0 947.6
12 15.03 Ю 1 30 км осадки на расстоянии 10/5 300 м
[Cb cap Ac As Ci ing]
+18.4 +17.6 95 +20 +21 1014.5 950.2 +18.4 +24.0
15 15.03 ЮВ 2 3000 м гроза, ливневой дождь 10/6 270 м
[Cb cap As op]
+15.4 +14.7 96 +15 +17 1018.9 953.8
18 15.03 ЮЗ 4 30 км в посл. час гроза 8/4 1500 м
[Cb cap Ac As Ci ing]
+16.1 +14.2 88 +15 +19 1013.1 948.4 35
21 15.03 В 2 30 км 10/4 240 м
[Cu Sc Ac As Ci ing]
+18.5 +14.8 79 +20 +21 1013.4 948.8
00 16.03 В 3 30 км 9/6 240 м
[Cu Sc Ac As]
+17.2 +15.5 90 +17 +17 1015.1 950.0 +14.5 +19.0
03 16.03 СВ 2 30 км в посл. час гроза 10/10 900 м
[Cb cap]
+14.7 +15 +15 1015.9 950.2
06 16.03 СЗ 4 30 км в посл. час гроза 10/10 900 м
[Cu Sc]
+16.3 +13.4 83 +16 +16 1014.2 948.8 7
09 16.03 СЗ 1 30 км дым 10/10 900 м
[Sc]
+14.6 +13.6 94 +15 +15 1015.8 950.4
12 16.03 В 2 30 км 4/4 300 м
[St]
+16.4 +15.1 92 +17 +19 1016.3 950.9 +13.8 +17.2 43
15 16.03 Ю 2 30 км 8/8 1200 м
[Cu Sc]
+22.4 +19.4 83 +28 +31 душно 1014.7 950.0
18 16.03 З 4 30 км 4/4 1200 м
[Cu med, cong]
+25.8 +14.4 49 +28 +34 жарко 1012.3 948.1
21 16.03 СЗ 4 30 км 9/6 1200 м
[Cu med, cong Ac As]
+23.2 +15.8 63 +28 +28 душно 1011.5 946.8
00 17.03 С 1 30 км зарница 10/10 1200 м
[Cb cap]
+20.5 +18.8 90 +25 +25 комфорт 1013.8 948.9 +16.4 +26.4
03 17.03 Ю 4 10 км гроза, ливневой дождь 10/6 900 м
[Cb cap As op]
+15.2 +14.9 98 +14 +14 1015.4 950.5
06 17.03 В 6 5000 м дождь {гроза} 10/5 1200 м
[Sc As op]
+15.2 +14.9 98 +13 +13 1016.2 951.7 10
09 17.03 Ю 1 30 км в посл. час дождь 10/10 300 м
[St]
+14.4 +13.4 94 +15 +15 1015.2 950.4
12 17.03 ЮВ 2 20 км дым {дождь} 5/1 1200 м
[Sc Ac As]
+14.6 +13.2 91 +14 +16 1015.1 950.0 +13.3 +20.5 3
15 17.03 С 2 30 км 3/3 600 м
[Cu hum]
+19.7 +13.4 67 +22 +33 комфорт 1014.8 949.7
18 17.03 З 2 30 км 4/3 900 м
[Cu hum Ac As]
+23.1 +14.8 60 +27 +35 душно 1013.2 948.5
21 17.03 ЮЗ 2 30 км 1/1 1200 м
[Cu hum]
+23.4 +13.4 53 +27 +28 душно 1011.0 946.4
00 18.03 СВ 1 30 км ясно +18.3 +15.2 82 +20 +20 1012.4 947.2 +14.6 +24.2
03 18.03 СВ 2 30 км ясно +15.4 +14.0 91 +15 +15 1012.5 947.6
06 18.03 В 3 30 км ясно +14.8 +13.4 91 +14 +14 1012.8 948.1
09 18.03 В 3 30 км ясно +13.9 +12.7 92 +13 +13 1012.2 947.4
12 18.03 штиль 0 30 км ясно +16.2 +13.1 82 +16 +20 1012.9 947.8 +13.2 +18.3
15 18.03 штиль 0 30 км ясно +23.6 +15.6 61 +27 +46 жарко 1011.9 947.3
18 18.03 СЗ 4 30 км 1/1 1200 м
[Sc]
+27.2 +15.6 49 +30 +39 душно 1009.4 945.3
21 18.03 З 2 30 км 3/1 1200 м
[Sc Ci]
+27.4 +15.7 49 +30 +32 жарко 1007.1 943.2
00 19.03 СВ 2 30 км 6/6 1200 м
[Sc]
+22.8 +18.2 75 +28 +28 душно 1008.5 944.2 +16.1 +28.4

 

Местоположение метеостанции Вилла Долорес (Аргентина): широта -31.95 долгота -65.13 высота над уровнем моря 569 м.

В архиве по умолчанию представлена погода в Вилла Долорес за последнюю неделю. Архивные данные за месяц целиком и за предыдущие месяцы, начиная с января 2011 года, Вы можете получить, выбрав интересующий диапазон дат из раскрывающегося списка и нажав кнопку "Ввод!".


*Определитесь, кто Вы:
робот инопланетянин человек

Внимание! Время в таблицах - всемирное. Для получения местного времени необходимо прибавить поправку, которая равна -3 ч.

Смотрите также архив погоды в соседних городах и на ближайших метеорологических станциях:

Погода в Кордове (Аргентина) (113 км)
Погода в Пиларе (Аргентина) (122 км)
Погода в Рио-Куарто (Аргентина) (150 км)
Погода в Сан-Луисе (Аргентина) (185 км)
Погода в Вилья Рейнольдс (Аргентина) (199 км)
Погода в Чамикале (Аргентина) (208 км)
Погода в Вилла де Мария дель Рио Секо (Аргентина) (267 км)
Погода в Маркос Хуарес (Аргентина) (292 км)
Погода в Лабоулайе (Аргентина) (293 км)
Погода в Сан-Хуане (Аргентина) (316 км)

Пояснения к столбцам:

Ветер - указаны скорость ветра в м/с - средняя за 10 мин, порывы в срок и между сроками (в фигурных скобках) и направление, откуда дует ветер: С - северный, СВ - северо-восточный, В - восточный, ЮВ - юго-восточный, Ю - южный, ЮЗ - юго-западный, З - западный, СЗ - северо-западный.
Видимость - горизонтальная дальность видимости в метрах или километрах. При видимости от 1 до 10 км при отсутствии осадков обычно наблюдается дымка, при ухудшении видимости до 1 км и менее - туман. В сухую погоду видимость может ухудшаться дымом, пылью или мглою.
Явления - указаны атмосферные явления, наблюдавшиеся в срок или в последний час перед сроком; фигурными скобками обозначены явления, наблюдавшиеся между сроками (за 1-3 часа до срока); квадратными скобками обозначены град или гололедные отложения с указанием их диаметра в мм.
Облачность - указаны через наклонную черту общая и нижняя облачность в баллах и высота нижней границы облаков в метрах; квадратными скобками обозначены формы облаков: Ci - перистые, Cs - перисто-слоистые, Cc - перисто-кучевые, Ac - высококучевые, As - высокослоистые, Sc - слоисто-кучевые, Ns - слоисто-дождевые, Cu - кучевые, Cb - кучево-дождевые. Подробнее классификацию облаков см. в Атласе облаков (PDF).
T - Температура воздуха - температура, измеренная на высоте 2 м над землей.
Td - Температура точки росы - температура, при понижении до которой содержащийся в воздухе водяной пар достигнет насыщения.
f - Относительная влажность воздуха - влажноcть воздуха, измеренная на высоте 2 м над землей.
Te - Эффективная температура - температура, которую ощущает одетый по сезону человек в тени. Характеристика душности погоды. При расчете учитывается влияние влажности воздуха и скорости ветра на теплоощущения человека.
Tes - Эффективная температура на солнце - температура, которую ощущает человек, с поправкой на солнечный нагрев. Характеристика знойности погоды. Зависит от высоты солнца над горизонтом, облачности и скорости ветра. Ночью, в пасмурную погоду, а также при ветре 12 м/с и более поправка равна нулю.
P - Атмосферное давление - приведенное к уровню моря атмосферное давление.
Po - Атмосферное давление - измеренное на уровне метеостанции атмосферное давление.
Tmin - Минимальная температура - минимум температуры воздуха на высоте 2 м над землей.
Tmax - Максимальная температура - максимум температуры воздуха на высоте 2 м над землей.
R - Количество осадков - Количество выпавших осадков за период времени, мм. При наведении курсора мыши на число - период времени, за который выпало указанное количество осадков.
R24 - Количество осадков - Количество выпавших осадков за 24 часа, мм.
S - Снежный покров - Высота снежного покрова, см. При наведении курсора мыши на число - состояние снежного покрова и степень покрытия местности в баллах.